| time (UTC) | temp F | wind direction | speed MPH | gust MPH | rain 1hr in | rain 24hr in | rain mn in | humidity % | barometer mb |
| 20260901160034 | 35 | 0 | 0.0 | 0.0 | 0.00 | 0.05 | 0.00 | 91 | 1011.1 |
| 20260901154536 | 35 | 0 | 0.0 | 0.0 | 0.00 | 0.13 | 0.00 | 90 | 1011.0 |
| 20260901153038 | 35 | 0 | 0.0 | 0.0 | 0.00 | 0.13 | 0.00 | 90 | 1010.9 |
| 20260901151537 | 35 | 0 | 0.0 | 0.0 | 0.00 | 0.13 | 0.00 | 90 | 1011.0 |
| 20260901150037 | 35 | 0 | 0.0 | 0.0 | 0.00 | 0.13 | 0.00 | 90 | 1010.8 |
| 20260901144533 | 36 | 0 | 0.0 | 0.0 | 0.00 | 0.31 | 0.00 | 90 | 1010.7 |
| 20260901143038 | 35 | 0 | 0.0 | 0.0 | 0.00 | 0.31 | 0.00 | 91 | 1010.8 |
| 20260901141535 | 35 | 0 | 0.0 | 0.0 | 0.00 | 0.31 | 0.00 | 89 | 1010.7 |
| 20260901140035 | 36 | 0 | 0.0 | 0.0 | 0.00 | 0.31 | 0.00 | 90 | 1010.7 |
| 20260901134540 | 37 | 0 | 0.0 | 0.0 | 0.00 | 0.38 | 0.00 | 87 | 1010.6 |
| 20260901133042 | 38 | 0 | 0.0 | 0.0 | 0.00 | 0.38 | 0.00 | 86 | 1010.6 |
| 20260901131533 | 38 | 0 | 0.0 | 0.0 | 0.00 | 0.38 | 0.00 | 86 | 1010.3 |
| 20260901130036 | 39 | 0 | 0.0 | 0.0 | 0.00 | 0.38 | 0.00 | 83 | 1010.2 |
| 20260901124536 | 40 | 0 | 0.0 | 0.0 | 0.00 | 0.38 | 0.00 | 83 | 1010.0 |
| 20260901123033 | 40 | 0 | 0.0 | 1.0 | 0.00 | 0.38 | 0.00 | 84 | 1009.8 |
| 20260901121534 | 40 | 0 | 0.0 | 0.0 | 0.00 | 0.38 | 0.00 | 83 | 1009.7 |
| 20260901120036 | 39 | 0 | 0.0 | 0.0 | 0.00 | 0.38 | 0.00 | 86 | 1009.6 |
| 20260901114533 | 39 | 0 | 0.0 | 0.0 | 0.00 | 0.38 | 0.00 | 86 | 1009.5 |
| 20260901113036 | 39 | 0 | 0.0 | 0.0 | 0.00 | 0.38 | 0.00 | 86 | 1009.3 |
| 20260901111534 | 39 | 0 | 0.0 | 0.0 | 0.00 | 0.38 | 0.00 | 86 | 1009.1 |
| 20260901110036 | 39 | 0 | 0.0 | 0.0 | 0.00 | 0.38 | 0.00 | 85 | 1009.1 |
| 20260901104543 | 40 | 0 | 0.0 | 0.0 | 0.00 | 0.38 | 0.00 | 85 | 1009.2 |
| 20260901103035 | 39 | 0 | 0.0 | 0.0 | 0.00 | 0.38 | 0.00 | 86 | 1009.2 |
| 20260901101544 | 39 | 0 | 0.0 | 0.0 | 0.00 | 0.38 | 0.00 | 86 | 1009.3 |
| 20260901100035 | 40 | 0 | 0.0 | 0.0 | 0.00 | 0.38 | 0.00 | 85 | 1008.9 |
| 20260901094539 | 40 | 0 | 0.0 | 0.0 | 0.00 | 0.38 | 0.00 | 84 | 1009.2 |
| 20260901093035 | 42 | 0 | 0.0 | 0.0 | 0.00 | 0.38 | 0.00 | 81 | 1009.2 |
| 20260901091543 | 42 | 0 | 0.0 | 0.0 | 0.00 | 0.38 | 0.00 | 82 | 1009.2 |
| 20260901090035 | 42 | 0 | 0.0 | 0.0 | 0.00 | 0.38 | 0.00 | 82 | 1009.0 |
| 20260901084537 | 44 | 0 | 0.0 | 0.0 | 0.00 | 0.38 | 0.00 | 78 | 1008.9 |
| 20260901083035 | 44 | 0 | 0.0 | 0.0 | 0.00 | 0.38 | 0.00 | 79 | 1008.7 |
| 20260901081535 | 44 | 0 | 0.0 | 0.0 | 0.00 | 0.38 | 0.00 | 79 | 1008.6 |
| 20260901080036 | 44 | 0 | 0.0 | 1.0 | 0.00 | 0.38 | 0.00 | 80 | 1008.5 |
| 20260901074545 | 43 | 0 | 0.0 | 0.0 | 0.00 | 0.38 | 0.38 | 84 | 1008.4 |
| 20260901073034 | 41 | 0 | 0.0 | 0.0 | 0.00 | 0.38 | 0.38 | 89 | 1008.4 |
| 20260901071536 | 41 | 0 | 0.0 | 0.0 | 0.00 | 0.38 | 0.38 | 90 | 1008.5 |
| 20260901070035 | 42 | 0 | 0.0 | 0.0 | 0.00 | 0.38 | 0.38 | 88 | 1008.5 |
| 20260901064536 | 42 | 0 | 0.0 | 0.0 | 0.00 | 0.38 | 0.38 | 88 | 1008.4 |
| 20260901063035 | 43 | 0 | 0.0 | 0.0 | 0.00 | 0.38 | 0.38 | 88 | 1008.2 |
| 20260901061534 | 43 | 0 | 0.0 | 0.0 | 0.00 | 0.38 | 0.38 | 88 | 1008.0 |
| 20260901060035 | 44 | 0 | 0.0 | 0.0 | 0.00 | 0.38 | 0.38 | 86 | 1007.8 |
| 20260901054532 | 45 | 0 | 0.0 | 0.0 | 0.00 | 0.38 | 0.38 | 85 | 1007.6 |
| 20260901053038 | 46 | 0 | 0.0 | 0.0 | 0.00 | 0.38 | 0.38 | 83 | 1007.3 |
| 20260901051532 | 49 | 0 | 0.0 | 0.0 | 0.00 | 0.38 | 0.38 | 77 | 1007.2 |
| 20260901050033 | 52 | 0 | 0.0 | 0.0 | 0.00 | 0.38 | 0.38 | 71 | 1007.1 |
| 20260901044536 | 53 | 0 | 0.0 | 0.0 | 0.00 | 0.38 | 0.38 | 68 | 1007.0 |
| 20260901043039 | 54 | 0 | 0.0 | 0.0 | 0.00 | 0.38 | 0.38 | 65 | 1006.7 |
| 20260901041533 | 55 | 0 | 0.0 | 0.0 | 0.00 | 0.38 | 0.38 | 64 | 1006.6 |
| 20260901040033 | 55 | 0 | 0.0 | 0.0 | 0.00 | 0.38 | 0.38 | 64 | 1006.7 |
| 20260901034540 | 55 | 0 | 0.0 | 0.0 | 0.00 | 0.38 | 0.38 | 62 | 1006.6 |
| 20260901033053 | 56 | 0 | 0.0 | 0.0 | 0.00 | 0.38 | 0.38 | 61 | 1006.4 |
| 20260901031559 | 56 | 0 | 0.0 | 0.0 | 0.00 | 0.38 | 0.38 | 64 | 1006.1 |
| 20260901030042 | 55 | 0 | 0.0 | 1.0 | 0.00 | 0.38 | 0.38 | 63 | 1005.8 |
| 20260901024534 | 56 | 0 | 0.0 | 0.0 | 0.00 | 0.38 | 0.38 | 64 | 1005.7 |
| 20260901023036 | 56 | 0 | 0.0 | 1.0 | 0.00 | 0.38 | 0.38 | 67 | 1005.5 |
| 20260901021537 | 56 | 0 | 0.0 | 0.0 | 0.00 | 0.38 | 0.38 | 68 | 1005.5 |
| 20260901020038 | 56 | 0 | 0.0 | 0.0 | 0.00 | 0.38 | 0.38 | 67 | 1005.3 |
| 20260901014540 | 55 | 0 | 0.0 | 0.0 | 0.00 | 0.38 | 0.38 | 71 | 1005.4 |
| 20260901013041 | 54 | 0 | 0.0 | 1.0 | 0.00 | 0.38 | 0.38 | 74 | 1005.2 |
| 20260901011537 | 53 | 0 | 0.0 | 2.0 | 0.00 | 0.38 | 0.38 | 74 | 1005.3 |
| 20260901010037 | 52 | 0 | 0.0 | 0.0 | 0.00 | 0.38 | 0.38 | 78 | 1005.1 |
| 20260901004540 | 52 | 0 | 0.0 | 2.0 | 0.00 | 0.38 | 0.38 | 76 | 1005.2 |
| 20260901003036 | 52 | 0 | 0.0 | 3.0 | 0.00 | 0.38 | 0.38 | 76 | 1005.1 |
| 20260901001548 | 51 | 0 | 0.0 | 0.0 | 0.00 | 0.38 | 0.38 | 79 | 1005.0 |
| 20260901000036 | 50 | 0 | 0.0 | 0.0 | 0.00 | 0.38 | 0.38 | 80 | 1005.0 |
| 20260831234538 | 49 | 0 | 0.0 | 3.0 | 0.00 | 0.38 | 0.38 | 82 | 1005.0 |
| 20260831233034 | 49 | 0 | 0.0 | 0.0 | 0.00 | 0.38 | 0.38 | 85 | 1004.9 |
| 20260831231536 | 48 | 0 | 0.0 | 1.0 | 0.00 | 0.38 | 0.38 | 85 | 1004.9 |
| 20260831230032 | 47 | 0 | 0.0 | 5.0 | 0.00 | 0.38 | 0.38 | 87 | 1004.8 |
| 20260831224534 | 46 | 0 | 0.0 | 0.0 | 0.00 | 0.38 | 0.38 | 90 | 1005.0 |
| 20260831223034 | 44 | 0 | 0.0 | 0.0 | 0.00 | 0.38 | 0.38 | 91 | 1005.1 |
| 20260831221543 | 43 | 0 | 0.0 | 0.0 | 0.00 | 0.38 | 0.38 | 91 | 1005.3 |
| 20260831220032 | 43 | 0 | 0.0 | 1.0 | 0.00 | 0.38 | 0.38 | 90 | 1005.2 |
| 20260831214535 | 42 | 0 | 0.0 | 1.0 | 0.00 | 0.38 | 0.38 | 92 | 1005.3 |
| 20260831213047 | 42 | 0 | 0.0 | 2.0 | 0.00 | 0.38 | 0.38 | 92 | 1005.2 |
| 20260831211538 | 42 | 0 | 0.0 | 1.0 | 0.01 | 0.38 | 0.38 | 94 | 1005.3 |
| 20260831210036 | 41 | 0 | 0.0 | 1.0 | 0.02 | 0.38 | 0.38 | 94 | 1005.4 |
| 20260831204533 | 41 | 0 | 0.0 | 1.0 | 0.02 | 0.38 | 0.38 | 94 | 1005.3 |
| 20260831203036 | 41 | 0 | 0.0 | 0.0 | 0.01 | 0.37 | 0.37 | 94 | 1005.2 |
| 20260831201535 | 40 | 0 | 0.0 | 0.0 | 0.01 | 0.37 | 0.37 | 94 | 1005.3 |
| 20260831200039 | 40 | 0 | 0.0 | 0.0 | 0.02 | 0.36 | 0.36 | 94 | 1005.3 |
| 20260831194535 | 40 | 0 | 0.0 | 0.0 | 0.02 | 0.36 | 0.36 | 94 | 1005.3 |
| 20260831193035 | 39 | 0 | 0.0 | 0.0 | 0.03 | 0.36 | 0.36 | 94 | 1005.5 |
| 20260831191543 | 39 | 0 | 0.0 | 3.0 | 0.03 | 0.36 | 0.36 | 93 | 1005.6 |
| 20260831190035 | 39 | 0 | 0.0 | 6.0 | 0.01 | 0.34 | 0.34 | 92 | 1005.8 |
| 20260831184537 | 41 | 0 | 0.0 | 3.0 | 0.01 | 0.34 | 0.34 | 89 | 1005.8 |
| 20260831183036 | 42 | 0 | 1.0 | 19.0 | 0.00 | 0.33 | 0.33 | 83 | 1005.6 |
| 20260831181533 | 43 | 0 | 0.0 | 0.0 | 0.00 | 0.33 | 0.33 | 82 | 1005.4 |
| 20260831180032 | 44 | 0 | 0.0 | 1.0 | 0.00 | 0.33 | 0.33 | 81 | 1005.3 |
| 20260831174536 | 43 | 0 | 0.0 | 0.0 | 0.00 | 0.33 | 0.33 | 85 | 1005.3 |
| 20260831173035 | 43 | 0 | 0.0 | 0.0 | 0.00 | 0.33 | 0.33 | 86 | 1005.2 |
| 20260831171536 | 42 | 0 | 0.0 | 0.0 | 0.00 | 0.33 | 0.33 | 87 | 1005.1 |
| 20260831170036 | 42 | 0 | 0.0 | 0.0 | 0.00 | 0.33 | 0.33 | 91 | 1005.1 |
| 20260831164545 | 41 | 0 | 0.0 | 0.0 | 0.00 | 0.33 | 0.33 | 91 | 1005.2 |
| 20260831163039 | 41 | 0 | 0.0 | 0.0 | 0.01 | 0.33 | 0.33 | 89 | 1005.0 |
| 20260831161534 | 40 | 0 | 0.0 | 0.0 | 0.03 | 0.33 | 0.33 | 91 | 1004.8 |